{"data":{"norad_id":53030,"epoch":"2026-05-25T04:18:03.598848Z","epoch_age_seconds":68338,"freshness":"FRESH","line1":"1 53030U 22076AW  26145.17920832 -.00002900  00000+0 -16416-3 0  9991","line2":"2 53030  53.2133 100.9375 0001394  83.6512 276.4639 15.08841774214534","mean_motion":15.08841774,"eccentricity":0.0001394,"inclination_deg":53.2133,"raan_deg":100.9375,"arg_perigee_deg":83.6512,"mean_anomaly_deg":276.4639,"bstar":-0.00016416,"rev_number":21453,"period_min":95.437442468371,"perigee_km":538.77361479078,"apogee_km":540.70231833145,"semimajor_km":6917.8749665611,"source":"CELESTRAK","updated_at":"2026-05-25T13:38:17.283131Z"}}